Home > Weather > Schwerin > Past weeks

Flag for Germany Weather for the Past 2 Weeks in Schwerin, Mecklenburg-Western Pomerania, Germany

Now
57 °F

Passing clouds.


Feels Like: 56 °F
Forecast: 43 / 58 °F
Wind: 7 mph from Southeast

Location: Mecklenburg-Vorpommern - Parchim

Current Time: Apr 30, 2016 at 1:54:59 PM

Latest Report: Apr 30, 2016 at 1:20 PM


Visibility: N/A

Pressure: 30.07 "Hg

Humidity: 41%

Dew Point: 34 °F

Location of SchwerinLocation

Historic Weather in Schwerin — Graph

°F

Schwerin Temperature Yesterday

Maximum temperature yesterday: 57 °F (at 4:20 PM)
Minimum temperature yesterday: 36 °F (at 6:20 AM)
Average temperature yesterday: 51 °F

High & Low Weather Summary for the Past Weeks

 TemperatureHumidityPressure
High59 °F (Apr 16, 1:50 PM)100% (Apr 16, 6:20 AM)30.36 "Hg (Apr 16, 6:20 AM)
Low30 °F (Apr 21, 6:50 AM)38% (Apr 29, 1:50 PM)29.42 "Hg (Apr 26, 6:20 AM)
Average47 °F67%29.87 "Hg
* Reported Apr 15 12:50 PM — Apr 30 12:20 PM, Schwerin, Weather by CustomWeather, © 2016

Note: Actual official high and low records may vary slightly from our data, if they occured in-between our weather recording intervals... More about our weather records

Advertising

Schwerin Weather History for the Previous 24 Hours

Scroll right to see more
 ConditionsComfort  
Time TempWeatherWind HumidityBarometerVisibility
12:20 PM
Sat, Apr 30
59 °FPassing clouds.9 mph42%30.04 "HgN/A
11:50 AM57 °FSunny.6 mph44%30.04 "Hg10 mi
11:20 AM57 °FPassing clouds.7 mph48%30.07 "HgN/A
10:50 AM55 °FSunny.7 mph51%30.07 "Hg10 mi
10:20 AM54 °FPassing clouds.5 mph58%30.07 "HgN/A
9:50 AM54 °FSunny.7 mph51%30.07 "Hg10 mi
8:50 AM50 °FSunny.6 mph62%30.07 "Hg10 mi
8:20 AM48 °FSunny.8 mph62%30.04 "Hg10 mi
7:50 AM46 °FPassing clouds.3 mph66%30.04 "HgN/A
7:20 AM45 °FPassing clouds.3 mph71%30.04 "HgN/A
6:50 AM41 °FPassing clouds.7 mph81%30.04 "HgN/A
6:20 AM39 °FPassing clouds.6 mph81%30.04 "HgN/A
6:50 PM
Fri, Apr 29
55 °FSunny.13 mph41%30.01 "Hg10 mi
6:20 PM55 °FSunny.14 mph44%30.01 "Hg10 mi
5:50 PM55 °FPassing clouds.15 mph44%30.01 "HgN/A
5:20 PM55 °FPassing clouds.16 mph41%30.01 "HgN/A
4:50 PM55 °FPassing clouds.17 mph41%30.01 "HgN/A
4:20 PM57 °FSunny.18 mph41%30.01 "Hg10 mi
3:50 PM55 °FPassing clouds.18 mph41%30.01 "HgN/A
3:20 PM55 °FPassing clouds.20 mph41%30.01 "HgN/A
2:55 PM55 °FPassing clouds.17 mph41%30.01 "HgN/A
2:50 PM55 °FPassing clouds.15 mph41%30.01 "HgN/A
2:20 PM55 °FSunny.18 mph41%30.01 "Hg10 mi
1:50 PM55 °FSunny.15 mph38%30.01 "Hg10 mi
1:20 PM54 °FPassing clouds.16 mph44%30.01 "HgN/A
Weather by CustomWeather, © 2016

See weather overviewHow to use our weather pages